TimeMST,TemperatureF,Dew PointF,Humidity,Sea Level PressureIn,VisibilityMPH,Wind Direction,Wind SpeedMPH,Gust SpeedMPH,PrecipitationIn,Events,Conditions,WindDirDegrees,DateUTC
12:15 AM,37.4,17.6,45,29.69,10.0,WSW,18.4,33.4,N/A,,Clear,250,2013-01-08 07:15:00
12:35 AM,37.4,17.6,45,29.69,10.0,West,23.0,44.9,N/A,,Clear,260,2013-01-08 07:35:00
12:55 AM,39.2,17.6,42,29.68,10.0,West,25.3,39.1,N/A,,Clear,260,2013-01-08 07:55:00
1:15 AM,37.4,17.6,45,29.70,10.0,WSW,20.7,34.5,N/A,,Clear,250,2013-01-08 08:15:00
1:35 AM,37.4,19.4,48,29.70,10.0,WSW,25.3,38.0,N/A,,Clear,240,2013-01-08 08:35:00
1:55 AM,37.4,19.4,48,29.72,10.0,WSW,25.3,32.2,N/A,,Clear,250,2013-01-08 08:55:00
2:15 AM,37.4,19.4,48,29.70,10.0,WSW,28.8,41.4,N/A,,Clear,250,2013-01-08 09:15:00
2:35 AM,35.6,19.4,52,29.71,10.0,WSW,26.5,41.4,N/A,,Clear,250,2013-01-08 09:35:00
2:55 AM,35.6,21.2,56,29.72,10.0,WSW,28.8,46.0,N/A,,Clear,250,2013-01-08 09:55:00
3:15 AM,35.6,19.4,52,29.73,10.0,West,25.3,39.1,N/A,,Clear,260,2013-01-08 10:15:00
3:35 AM,35.6,19.4,52,29.73,10.0,West,26.5,40.3,N/A,,Clear,260,2013-01-08 10:35:00
3:55 AM,35.6,19.4,52,29.73,10.0,WSW,21.9,42.6,N/A,,Clear,250,2013-01-08 10:55:00
4:15 AM,35.6,19.4,52,29.73,10.0,WSW,27.6,39.1,N/A,,Clear,250,2013-01-08 11:15:00
4:35 AM,35.6,19.4,52,29.75,10.0,WSW,17.3,38.0,N/A,,Clear,250,2013-01-08 11:35:00
4:55 AM,35.6,19.4,52,29.77,10.0,West,11.5,26.5,N/A,,Clear,270,2013-01-08 11:55:00
5:15 AM,33.8,19.4,56,29.79,10.0,NE,4.6,-,N/A,,Clear,40,2013-01-08 12:15:00
5:35 AM,35.6,19.4,52,29.79,10.0,South,8.1,-,N/A,,Clear,190,2013-01-08 12:35:00
5:55 AM,33.8,17.6,52,29.79,10.0,East,10.4,-,N/A,,Clear,100,2013-01-08 12:55:00
6:15 AM,33.8,17.6,52,29.80,10.0,SE,10.4,-,N/A,,Partly Cloudy,130,2013-01-08 13:15:00
6:35 AM,35.6,15.8,44,29.81,10.0,SE,9.2,-,N/A,,Partly Cloudy,140,2013-01-08 13:35:00
6:55 AM,35.6,17.6,48,29.81,10.0,WSW,8.1,17.3,N/A,,Partly Cloudy,240,2013-01-08 13:55:00
7:15 AM,35.6,15.8,44,29.81,10.0,NW,9.2,18.4,N/A,,Clear,320,2013-01-08 14:15:00
7:35 AM,35.6,15.8,44,29.82,10.0,West,10.4,23.0,N/A,,Clear,270,2013-01-08 14:35:00
8:15 AM,35.6,17.6,48,29.84,10.0,WSW,15.0,24.2,N/A,,Clear,250,2013-01-08 15:15:00
8:35 AM,35.6,17.6,48,29.86,10.0,West,10.4,23.0,N/A,,Clear,260,2013-01-08 15:35:00
8:55 AM,37.4,17.6,45,29.86,10.0,WSW,15.0,21.9,N/A,,Clear,250,2013-01-08 15:55:00
9:15 AM,37.4,17.6,45,29.87,10.0,West,11.5,26.5,N/A,,Clear,260,2013-01-08 16:15:00
9:35 AM,37.4,17.6,45,29.88,10.0,West,17.3,26.5,N/A,,Clear,260,2013-01-08 16:35:00
9:55 AM,37.4,17.6,45,29.88,10.0,West,16.1,26.5,N/A,,Clear,260,2013-01-08 16:55:00
10:15 AM,37.4,17.6,45,29.90,10.0,West,20.7,27.6,N/A,,Clear,260,2013-01-08 17:15:00
10:35 AM,37.4,17.6,45,29.90,10.0,West,12.7,21.9,N/A,,Clear,260,2013-01-08 17:35:00
10:55 AM,37.4,15.8,41,29.91,10.0,WSW,13.8,21.9,N/A,,Clear,250,2013-01-08 17:55:00
11:15 AM,39.2,17.6,42,29.90,10.0,WSW,12.7,21.9,N/A,,Clear,250,2013-01-08 18:15:00
11:35 AM,39.2,15.8,39,29.91,10.0,WSW,12.7,24.2,N/A,,Clear,250,2013-01-08 18:35:00
11:55 AM,39.2,17.6,42,29.91,10.0,West,13.8,21.9,N/A,,Partly Cloudy,260,2013-01-08 18:55:00
12:15 PM,39.2,17.6,42,29.92,10.0,West,16.1,25.3,N/A,,Mostly Cloudy,270,2013-01-08 19:15:00
1:15 PM,39.2,17.6,42,29.94,10.0,West,16.1,21.9,N/A,,Mostly Cloudy,260,2013-01-08 20:15:00
1:35 PM,39.2,15.8,39,29.94,10.0,WSW,8.1,19.6,N/A,,Partly Cloudy,240,2013-01-08 20:35:00
1:55 PM,39.2,17.6,42,29.95,10.0,WSW,16.1,29.9,N/A,,Partly Cloudy,250,2013-01-08 20:55:00
2:35 PM,39.2,15.8,39,29.96,10.0,West,12.7,26.5,N/A,,Mostly Cloudy,280,2013-01-08 21:35:00
2:55 PM,41.0,17.6,39,29.97,10.0,West,9.2,-,N/A,,Mostly Cloudy,280,2013-01-08 21:55:00
3:15 PM,41.0,17.6,39,29.96,10.0,West,18.4,32.2,N/A,,Scattered Clouds,270,2013-01-08 22:15:00
3:35 PM,39.2,17.6,42,29.96,10.0,West,19.6,26.5,N/A,,Partly Cloudy,260,2013-01-08 22:35:00
3:55 PM,39.2,17.6,42,29.97,10.0,West,10.4,27.6,N/A,,Scattered Clouds,260,2013-01-08 22:55:00
4:16 PM,39.2,17.6,42,29.98,10.0,West,10.4,-,N/A,,Mostly Cloudy,270,2013-01-08 23:16:00
4:35 PM,39.2,17.6,42,29.97,10.0,West,10.4,19.6,N/A,,Mostly Cloudy,260,2013-01-08 23:35:00
4:55 PM,39.2,17.6,42,29.98,10.0,West,11.5,19.6,N/A,,Partly Cloudy,280,2013-01-08 23:55:00
5:15 PM,39.2,17.6,42,29.98,10.0,WNW,5.8,18.4,N/A,,Clear,290,2013-01-09 00:15:00
5:36 PM,37.4,17.6,45,29.98,10.0,West,9.2,-,N/A,,Clear,280,2013-01-09 00:36:00
5:55 PM,39.2,19.4,45,29.98,10.0,West,15.0,25.3,N/A,,Partly Cloudy,270,2013-01-09 00:55:00
6:15 PM,39.2,17.6,42,29.98,10.0,WSW,20.7,32.2,N/A,,Partly Cloudy,240,2013-01-09 01:15:00
6:35 PM,39.2,19.4,45,29.99,10.0,WSW,18.4,31.1,N/A,,Clear,240,2013-01-09 01:35:00
6:55 PM,39.2,19.4,45,30.00,10.0,NW,9.2,19.6,N/A,,Partly Cloudy,310,2013-01-09 01:55:00
7:55 PM,41.0,19.4,42,30.01,10.0,WSW,18.4,36.8,N/A,,Clear,250,2013-01-09 02:55:00
8:15 PM,41.0,19.4,42,30.01,10.0,WSW,19.6,35.7,N/A,,Mostly Cloudy,240,2013-01-09 03:15:00
8:35 PM,39.2,19.4,45,30.03,10.0,South,9.2,32.2,N/A,,Mostly Cloudy,190,2013-01-09 03:35:00
8:55 PM,39.2,21.2,49,30.02,10.0,WSW,25.3,35.7,N/A,,Mostly Cloudy,240,2013-01-09 03:55:00
9:15 PM,41.0,21.2,45,30.02,10.0,WSW,19.6,33.4,N/A,,Scattered Clouds,250,2013-01-09 04:15:00
9:35 PM,41.0,21.2,45,30.02,10.0,WSW,17.3,34.5,N/A,,Partly Cloudy,250,2013-01-09 04:35:00
10:35 PM,39.2,21.2,49,30.03,10.0,WSW,21.9,36.8,N/A,,Clear,250,2013-01-09 05:35:00
10:55 PM,39.2,21.2,49,30.04,10.0,WSW,23.0,38.0,N/A,,Clear,250,2013-01-09 05:55:00
11:15 PM,39.2,21.2,49,30.03,10.0,WSW,25.3,35.7,N/A,,Clear,240,2013-01-09 06:15:00
11:35 PM,39.2,21.2,49,30.04,10.0,WSW,21.9,36.8,N/A,,Clear,240,2013-01-09 06:35:00
11:56 PM,41.0,21.2,45,30.06,10.0,WSW,20.7,38.0,N/A,,Clear,250,2013-01-09 06:56:00